GFSMA_con_sbcape_162.txt.gz
CAPE
1480 1974 2152 2165 2117 1855 1917 1997 1979 2035 2165 1881 1818 1800 1614 1560 1458 1318 1107 2523 1953 2162 1826 2249 2967 3053 2748 2419 2779 2857 2493 1733 2448 2202 1718 1564 1399 1406 1722 1614 1422 928 1098
2168 2237 2440 2172 1891 1899 1803 2127 2716 2283 1861 1152 643 874 1592 1786 1495 1477 1410 1452 2517 2231 2184 1762 2811 3359 3285 2815 2575 2843 2808 2405 2217 2436 2460 2334 2023 1685 1865 1921 1791 1741 1677
2669 3030 2510 2304 1664 2211 2861 1984 1816 1183 928 494 383 230 626 1051 1159 1511 1754 1636 1567 2374 2106 1689 2060 2629 3006 3133 2929 2746 2696 2758 2527 2190 2208 2183 2161 1991 1829 1922 2046 1972 1845
3067 2996 2103 1551 1840 1911 1458 1361 1175 1103 774 712 652 363 175 142 218 698 952 1029 1166 1324 1855 1784 1700 1939 2276 2788 3032 2875 2570 2566 2337 2284 2110 2046 1913 2124 2111 1972 1698 1634 1810
2494 2997 1861 1589 2184 1112 1122 1480 1368 1339 1166 742 312 193 99 15 0 0 36 557 872 894 1000 875 1628 1740 1467 1483 2411 2800 2835 2750 2591 2366 2369 2166 2010 1801 1839 1832 1595 1433 1408
2433 2734 1897 2287 2457 1264 1261 2037 2408 1662 1196 573 322 67 2 0 20 34 96 34 12 404 416 955 1326 1368 2163 1753 1999 2303 2645 2890 2616 2662 2593 2456 2180 1937 1770 1691 1555 1447 1443
2485 2858 2348 1918 2388 2354 3132 2948 1998 806 535 590 155 0 0 0 43 6 0 0 0 7 206 114 581 693 638 1596 1546 1645 1734 2225 2552 2514 2819 2533 2354 2072 1903 1782 1579 1518 1549
2539 2748 3090 2783 2691 2812 2767 2660 1841 484 0 112 106 2 0 0 80 0 31 31 151 116 72 49 99 75 102 186 533 1096 1900 1873 1836 2235 2453 2533 2229 2045 1837 1734 1608 1533 1478
2792 3092 3469 3486 3498 3450 2087 1710 684 402 13 0 85 109 55 0 79 16 3 17 8 25 23 7 0 0 5 35 156 264 1386 1598 1834 1722 2089 2286 2044 1877 1808 1654 1494 1430 1392
2781 3176 3659 3533 3347 1900 1523 978 267 310 273 0 34 45 154 307 193 169 7 2 0 1 0 0 0 0 0 0 0 39 232 219 829 1071 1371 1742 1880 2084 1840 1747 1636 1456 1340
3166 2852 2929 2466 1973 1689 1319 657 300 209 44 337 78 85 82 49 34 26 0 0 0 0 0 0 0 0 0 0 0 0 165 470 696 853 944 1117 1599 2026 2323 1953 1951 1884 1727
2532 2624 2312 2109 1763 1132 667 223 185 310 518 530 393 144 26 10 0 1 5 0 0 0 0 0 0 0 0 0 0 3 31 98 78 76 346 659 913 1567 2042 2442 2321 2244 2144
2125 3000 2435 1417 895 636 455 257 333 447 476 448 360 12 0 0 0 0 3 0 0 0 0 0 1 0 0 0 0 28 8 6 5 1 3 19 265 663 945 1543 2202 2250 2349
2815 1982 1045 625 432 365 276 280 288 347 417 183 16 17 0 0 0 0 0 3 14 12 0 76 1 7 4 5 18 42 9 10 5 2 0 0 41 70 84 524 1052 1726 1931
2333 1310 437 683 687 388 252 265 376 477 224 22 0 0 0 0 0 0 0 12 32 36 57 9 1 12 5 16 59 59 73 52 44 21 10 1 0 0 0 70 239 507 848
2471 668 536 539 451 349 223 482 304 246 2 0 0 0 0 0 0 0 2 17 45 47 50 18 18 48 96 65 64 65 43 58 30 31 11 0 12 0 0 0 0 36 89
1742 864 574 602 604 428 227 519 512 0 0 0 0 0 0 0 0 0 23 43 58 35 33 7 26 39 46 24 26 22 39 46 41 20 13 2 0 0 0 0 0 0 0
1297 943 742 714 751 242 349 556 323 0 0 0 0 0 0 0 0 16 46 153 116 148 47 116 69 35 34 17 13 16 31 27 22 26 26 29 13 0 0 0 0 0 0
1592 1136 1076 841 549 414 528 612 92 0 12 1 0 0 0 0 2 30 144 40 44 105 40 86 26 22 24 19 8 13 5 25 20 17 15 13 7 5 0 0 0 0 0
1867 1358 1008 658 496 476 625 461 14 17 35 7 4 2 0 0 6 95 38 59 100 84 46 20 14 12 19 28 12 12 5 10 15 11 16 7 8 3 0 0 0 0 0
1316 1071 924 610 480 569 343 198 10 34 65 43 45 13 0 0 3 2 7 29 76 38 22 14 9 19 12 15 21 16 11 8 14 29 27 20 43 24 5 0 0 0 0
1308 1114 803 436 532 244 0 0 0 61 80 75 70 0 0 0 18 7 0 0 1 29 48 6 8 12 6 15 16 24 15 18 13 25 18 25 59 47 23 7 0 0 0
1598 1190 529 499 409 427 0 0 0 34 84 123 45 0 0 0 20 25 0 0 22 15 14 7 5 5 8 6 5 14 23 17 15 9 93 36 20 3 40 12 0 0 0
1192 646 563 511 556 564 0 0 0 19 111 74 0 0 0 15 18 0 0 0 80 62 6 11 2 7 12 3 24 16 18 18 23 18 80 9 12 128 69 22 0 0 0
742 562 487 646 813 532 0 0 0 34 81 0 0 0 2 14 0 0 0 4 16 32 0 0 3 4 5 0 2 22 20 14 15 22 240 2 269 766 329 188 148 0 0
720 378 598 735 452 354 0 0 0 0 0 0 0 0 0 0 0 0 0 1 0 0 22 11 13 3 4 5 5 28 34 26 24 60 90 252 1041 1217 1100 1271 1228 486 194

GFSMA_con_sbcape_165.txt.gz
CAPE
1645 2604 2436 1331 1096 675 1208 1247 1299 1537 1103 884 1070 899 783 1340 1522 1393 1225 3088 2966 2558 2454 1926 2595 3214 3518 3126 2785 2792 2983 2516 2537 2268 1675 1626 1643 1384 1329 1663 1232 1348 1210
3453 2100 2116 1827 781 746 923 1186 1419 1479 837 389 220 156 158 288 845 1832 1586 1885 3089 2848 2876 2645 2500 2869 3312 3685 3134 2765 2801 2749 2533 2541 2665 2360 2235 2039 1669 1471 1796 1987 1717
2711 2762 2589 1283 916 1488 1984 2188 1551 831 669 446 471 281 169 44 26 245 710 1550 2375 3145 3165 2928 2748 2518 2503 3225 3546 3070 2781 2762 2699 2523 2317 2381 2394 2288 2076 1877 1980 2207 1894
2608 2584 1712 1060 1858 1595 942 1080 1042 982 930 873 958 105 170 75 18 22 1 158 508 668 2401 2902 2423 2101 2132 2438 2542 2832 3039 2707 2562 2499 2261 2361 2077 2241 2214 2060 2009 1996 2020
1973 2118 1399 1587 1523 963 993 1451 1059 1464 1221 764 284 67 195 0 0 0 29 91 172 389 267 1879 2582 2355 2512 1894 2127 2539 2642 2815 2702 2541 2521 2444 2236 1960 2049 2237 2105 1985 1740
1915 1828 1645 1653 1966 1033 1088 2089 2088 1402 625 470 313 89 135 1 48 12 10 1 0 6 15 452 689 906 2643 2437 1865 2039 2456 2429 2532 2639 2631 2527 2351 2161 1953 1746 1922 1948 1702
2004 2144 1706 1515 1810 2099 2863 2651 2211 1877 51 194 50 0 0 0 69 63 0 23 9 72 78 91 54 214 582 2154 2156 2116 1893 2281 2496 2604 2993 2355 2368 2385 2118 1923 1564 1639 1559
2361 2442 2695 2528 2069 2087 2874 2668 2240 865 62 44 35 120 43 0 13 11 4 0 51 0 6 58 212 537 269 125 359 1323 2085 2455 2219 2268 2199 2430 2188 1881 2039 1979 1742 1595 1488
2687 2707 2813 3217 3472 3190 2052 2482 1537 892 52 72 108 235 89 0 45 78 165 2 49 0 0 15 15 166 261 0 96 228 1317 1464 1886 2237 2282 2083 2109 1863 1825 1843 1775 1607 1473
2447 2677 3286 3424 3548 3122 2647 1931 945 752 1250 201 22 56 994 416 172 83 7 50 111 220 135 0 0 1 20 0 0 63 61 11 287 838 1274 1656 1763 1932 2066 2025 1715 1722 1493
2984 3316 3642 3265 3504 2847 3189 1859 775 532 248 358 199 421 557 48 311 1 0 0 0 0 0 0 1 1 16 33 8 2 297 612 156 187 945 1095 985 935 1318 2014 2221 1956 1844
2841 3778 3317 3511 3174 2444 1903 1127 640 370 963 763 692 699 11 0 0 0 0 7 0 0 0 3 17 21 17 11 0 327 724 552 252 212 222 239 221 399 586 1035 2047 2363 2120
1813 3576 3715 3294 2526 2176 1296 950 820 647 696 587 719 270 0 0 0 0 0 0 0 0 0 0 15 30 11 33 18 178 70 40 40 57 31 0 0 16 41 186 1124 1851 2120
1972 3872 3113 2733 1738 1186 1079 1096 555 509 521 621 417 229 2 0 0 0 0 0 5 23 29 142 20 23 21 30 51 354 80 69 49 34 22 26 8 0 0 4 490 308 1148
2474 3120 2744 2129 1378 1334 1169 792 628 530 934 453 77 10 0 0 0 0 0 1 18 30 39 57 66 85 24 73 115 124 108 97 65 42 23 10 24 18 16 16 0 53 313
4590 3404 2229 1524 1340 1228 1079 892 638 636 752 112 0 1 0 0 0 0 0 3 40 82 83 30 35 196 422 463 56 74 89 45 31 14 5 0 0 7 11 21 9 0 0
4987 3075 2555 1643 1227 1287 1184 971 976 638 202 11 1 2 0 153 1 0 0 26 43 62 70 69 115 264 524 140 38 22 25 13 13 14 5 13 9 5 0 2 0 0 0
4323 2937 1728 1960 1545 1416 1071 1021 862 470 27 17 3 3 2 2 36 143 2 141 45 301 217 191 258 262 119 18 19 9 12 17 23 9 7 15 13 1 0 0 0 0 0
4193 3295 2169 1651 1740 1490 1056 992 864 374 40 1 8 10 9 24 262 57 14 43 42 108 152 132 132 90 13 12 3 10 21 16 23 23 8 13 7 0 0 1 3 0 0
3564 2983 1291 1439 1802 1246 1056 1021 526 353 26 35 35 40 56 43 65 4 27 183 179 79 116 147 89 20 7 7 11 14 15 20 20 24 18 17 14 7 1 2 7 0 0
3255 2868 1928 1803 1482 1251 1014 802 458 152 81 129 137 138 108 0 0 3 12 51 49 12 81 146 73 6 3 5 5 4 10 12 13 22 18 19 21 21 22 0 4 2 0
2261 2267 1967 1798 1506 1029 0 0 0 16 34 131 231 213 118 8 0 0 1 0 0 32 152 205 19 6 8 10 14 15 7 8 16 15 17 15 21 37 60 23 16 0 0
2497 2293 2279 1723 1252 962 0 0 0 0 11 97 253 206 3 0 1 4 0 0 0 67 106 167 32 10 13 13 12 5 10 7 13 9 12 3 25 45 11 6 5 0 0
2341 1932 2119 1404 1103 311 0 0 0 0 78 174 275 18 0 4 0 0 0 0 0 90 76 33 36 13 11 10 11 7 5 17 21 3 17 15 0 0 64 256 10 0 0
2322 1758 1482 1157 870 527 0 0 0 1 70 438 22 10 0 0 0 0 0 0 1 0 0 0 0 1 7 9 12 6 17 18 9 2 48 6 4 176 1025 258 80 0 0
1790 1205 908 1438 747 825 0 0 0 0 61 23 100 48 0 0 0 0 0 0 0 0 0 0 4 0 0 5 7 4 8 10 13 14 40 10 110 262 1027 763 363 1 0

GFSMA_con_sbcape_168.txt.gz
CAPE
3530 2089 2959 3154 3287 2643 2306 1889 1879 2030 1831 1247 1927 817 395 335 850 1688 1312 3291 2886 2775 2936 3140 2962 2908 3193 3596 3308 2974 2913 2595 2784 2477 2182 2372 2208 1762 1765 2205 1941 2014 1951
3352 3396 3150 3258 1865 2087 1911 2378 2703 2480 2383 1656 1151 1121 853 530 238 726 1365 1888 3291 2762 3281 3323 3093 2763 2796 2824 3416 3293 3000 2950 2755 2635 2680 2373 2223 2157 1957 1814 2240 2081 2071
3478 4259 3032 2956 2261 2458 2821 3509 3438 2420 1980 1389 1773 580 643 483 261 539 311 95 762 3444 3333 3194 3110 2747 2597 2534 2767 3463 3262 2892 2791 2471 2649 2552 2359 2297 2348 2082 1812 2411 2257
3564 4173 2590 2200 2429 2730 2689 2704 1745 1949 1951 1487 1759 1196 833 683 658 337 262 394 246 83 2663 3368 2984 2871 2698 2690 2285 2249 2331 2475 2130 2619 2326 2606 2429 2374 2283 2339 2143 1889 2178
2584 3093 2784 3203 2467 2533 2715 2216 2686 2756 1442 1528 757 242 819 243 468 135 311 549 581 494 589 2095 3017 2557 2746 2541 2468 2114 2216 2157 2422 2070 2302 2361 2489 2163 2129 1964 2159 2091 2022
2758 3102 2444 3764 2507 2760 3254 3266 4031 3240 1582 1259 210 165 608 498 538 509 561 111 338 255 308 642 1757 1510 2486 2798 2334 2215 2212 1977 1945 2048 2510 2448 2344 2329 2013 2044 1922 1905 1942
3032 3795 2809 2868 3334 3363 3317 3490 3432 2518 1362 1202 336 356 157 543 625 17 38 167 200 625 314 508 1419 401 223 1173 2326 2397 2386 2397 1988 1896 2007 2023 2053 2094 2033 1934 1751 1693 1749
3536 3562 3546 3307 3623 3469 4130 3092 3128 2133 1354 790 891 499 604 374 14 11 443 173 202 45 46 28 242 520 786 253 115 833 923 2097 2391 2362 2074 2018 1902 1823 1680 1884 1822 1719 1605
3901 4212 4092 4282 4532 4461 3368 3383 2726 1665 776 851 989 645 618 188 227 488 213 140 663 190 85 124 114 162 810 34 118 164 1116 998 620 1258 1889 2176 1858 1704 1469 1302 1501 1635 1533
3460 3619 4175 4408 4804 4069 3546 2865 2317 1499 1496 517 784 963 993 923 496 187 258 127 178 3 166 7 0 0 28 135 43 476 569 205 443 848 1243 1360 1465 1632 1537 1630 1527 1597 1551
3778 3411 4018 4161 4552 4233 4110 2673 1834 1223 928 1378 920 737 859 533 354 16 0 0 0 0 0 0 0 0 5 351 224 128 832 974 539 557 459 380 930 1315 991 768 923 1529 1806
3709 3821 3910 4407 4371 3990 2863 1911 1666 1589 1395 1313 1285 1492 682 65 5 0 0 0 0 0 0 0 1 52 23 59 319 833 754 871 680 376 377 479 596 603 546 256 409 611 1204
2807 3760 4011 4567 3920 3503 2411 2270 1981 1678 1361 1537 1594 1166 552 74 0 0 0 0 0 0 0 0 0 17 64 116 119 855 315 590 354 82 65 94 114 197 180 93 109 6 49
2971 4554 3971 3775 3330 2820 2210 2364 1799 1456 1644 1657 1311 855 596 137 0 0 0 0 0 0 0 0 0 80 16 0 91 541 154 110 64 37 22 42 59 56 72 42 18 0 81
3007 3947 3735 3315 2939 2223 2177 2190 1377 1677 1692 1800 1223 989 408 82 0 0 0 0 0 0 1 6 23 0 0 0 10 78 14 31 47 16 12 8 13 41 58 65 35 1 9
4346 4414 3450 3083 2360 2123 2099 2179 1532 1805 1899 1476 672 479 208 105 0 0 0 0 0 9 20 0 0 0 5 19 28 8 0 29 18 14 3 3 17 31 36 28 25 9 0
4676 4809 3120 2456 2052 2012 1314 1328 1645 1999 1585 1236 664 265 496 321 175 6 0 3 0 0 28 7 0 1 4 34 4 0 0 3 7 17 26 9 11 10 21 21 4 2 0
5108 4922 3363 2264 1920 1926 1928 1897 1838 1586 1414 934 695 539 379 93 368 243 38 0 0 16 35 31 0 0 12 1 3 2 4 10 12 17 17 23 2 2 0 6 12 0 0
4756 4744 3745 2524 2436 1965 1991 2028 2131 1870 1004 588 454 333 404 406 471 235 3 0 6 37 0 0 2 22 6 0 4 3 6 12 11 15 32 11 1 0 1 0 0 0 0
4927 4169 3264 2455 1587 1783 2170 2085 2017 1383 933 423 665 351 491 472 7 14 0 54 31 0 0 0 37 10 2 5 7 12 8 5 2 1 4 11 15 7 10 0 0 0 0
4422 2611 2220 1963 2075 2264 1744 2011 1771 1218 873 790 355 590 455 42 21 0 0 0 0 0 0 25 32 3 2 6 11 12 8 3 0 1 1 0 1 1 3 0 0 0 0
3845 3341 1918 2007 2199 1641 1470 1131 1194 1222 627 463 792 773 640 98 0 0 0 0 0 0 24 58 28 5 0 4 15 8 6 4 1 0 0 0 1 1 0 2 0 0 0
3720 3282 2690 2290 1752 625 0 8 6 88 103 592 741 552 241 0 0 0 0 0 0 0 71 58 50 0 0 5 7 3 3 8 1 0 3 1 0 0 0 17 14 0 0
3134 2993 2648 2408 1910 0 0 0 0 68 192 519 666 487 253 23 0 0 0 0 0 0 0 0 5 0 0 2 3 4 5 6 10 1 3 3 0 0 0 0 4 0 0
2697 2295 2258 1930 1630 0 0 0 0 50 217 729 602 194 52 2 0 0 0 0 0 0 0 0 0 0 0 0 0 4 2 6 6 5 4 8 4 4 3 8 71 12 0
2357 1862 2148 1496 1060 45 0 0 17 216 338 369 238 0 0 0 0 0 0 0 0 0 0 0 0 2 0 0 0 0 3 4 12 4 1 7 7 11 67 3 3 0 0

GFSMA_con_sbcape_171.txt.gz
CAPE
1923 1543 1496 2011 2071 1843 1834 712 453 552 859 490 637 839 28 0 0 49 901 3405 3196 2875 3252 3108 2816 2390 2619 2805 2931 3218 3018 2498 2779 2611 2519 2462 2452 2159 2064 1905 2011 1783 2076
2094 1920 1842 1784 1297 1030 442 643 1071 1483 1124 1032 723 62 153 54 0 0 322 1387 2720 3144 3201 3014 3117 2650 2631 2531 2375 2252 3014 2796 2572 2765 2488 2508 2469 2404 2142 1925 2211 2321 2156
1972 1908 2139 2303 1127 716 1100 1499 2029 936 552 526 299 433 0 37 0 0 0 0 38 3189 3369 3248 3301 2997 2763 2583 2341 2080 2162 2342 2342 2266 2416 2087 2239 2208 2076 2267 2012 2093 2276
1974 1811 2177 1732 499 893 1474 888 1017 892 480 164 365 17 0 21 0 0 0 0 0 0 2217 3581 3241 2972 2772 2340 2379 2126 1841 1630 1842 1820 1925 1774 1976 2197 1887 2360 2238 1996 2100
2174 1921 1584 1728 592 886 1768 1452 1335 1414 861 68 72 0 0 0 4 32 0 10 13 4 19 952 3222 2978 2919 2773 2840 2258 1743 1923 1788 1577 1736 1766 1737 1847 2097 2245 2242 2202 1942
1646 1574 1199 1953 864 923 1758 1783 2017 1901 569 158 0 5 0 0 5 0 0 0 0 2 0 3 850 1313 2533 2350 2079 2229 2298 2195 2083 1814 1398 1391 1258 1732 1610 1885 1859 2048 1857
1124 1428 1002 1246 1752 1175 1828 1991 2061 982 363 35 0 0 0 0 0 0 4 0 0 0 0 27 529 0 13 659 1516 2023 1533 1870 2195 2142 1569 1391 1360 1414 1364 1639 1618 1527 1527
1229 2033 1522 1611 1387 2387 2125 1676 1843 928 285 0 48 1 6 3 0 0 0 0 0 0 0 0 0 0 4 85 129 1204 980 996 1792 2033 1863 1768 1602 1246 1252 1165 1157 1180 1530
1727 1775 1864 1376 1548 2584 2163 1971 1493 701 12 0 7 3 39 1 0 24 27 0 0 0 0 0 0 0 0 54 221 189 1122 1261 1273 1273 1638 1766 1754 1663 1354 1111 917 646 1525
1825 2371 2459 2162 2447 2493 2544 1866 1055 372 95 40 0 50 3 2 71 9 0 0 0 0 0 0 0 0 0 0 4 643 1035 1022 1048 810 1143 1346 1524 1609 1605 1604 1233 904 1163
2260 2307 2405 2323 2610 3170 2648 952 437 130 102 165 111 72 57 4 0 0 0 0 0 0 0 0 0 0 0 0 0 15 1271 708 729 680 628 1001 950 924 1048 1441 1419 1365 1282
2522 2349 2573 2587 2577 2661 1875 1069 478 311 216 361 265 191 233 0 0 0 0 0 0 0 0 0 0 0 0 3 13 658 867 816 632 301 163 174 250 494 571 764 892 858 816
2319 2324 2397 2923 2735 2334 1730 1095 719 550 526 457 509 484 12 0 0 0 0 0 0 0 0 0 0 0 0 0 15 566 283 629 179 0 0 0 5 23 61 293 562 558 504
2035 1918 2490 2868 2615 2025 1143 903 959 667 795 821 634 247 0 0 0 0 0 0 0 0 0 0 0 0 0 0 3 368 10 163 14 1 0 0 0 21 30 71 82 114 96
2202 2534 2668 2682 2281 1862 1394 1172 946 747 672 911 743 212 0 0 0 0 0 0 0 0 0 0 0 0 0 0 2 0 8 10 23 3 1 6 14 28 27 36 40 53 61
2317 3041 2748 2449 1900 1425 1216 1179 795 619 675 601 33 0 0 0 0 0 0 0 0 0 0 0 0 0 0 0 0 0 0 21 45 41 22 20 23 29 27 33 37 54 68
2674 2993 2645 2068 1660 1332 1173 1041 911 724 761 470 3 0 0 0 0 0 0 0 0 0 0 0 0 0 0 0 0 0 0 0 4 26 28 28 27 28 31 26 30 36 31
3412 3238 2240 1698 1464 1281 1017 850 828 976 909 419 66 0 0 0 0 0 0 0 0 0 0 0 0 0 0 0 0 0 0 2 1 5 19 20 17 13 12 15 7 14 6
3573 2748 2234 1698 1314 1222 1120 905 1091 928 449 305 29 5 0 0 0 0 0 0 0 0 0 0 0 0 0 0 0 0 0 0 1 7 12 15 12 6 6 0 0 0 0
4047 3653 2578 1951 1470 1251 1116 1354 1117 822 220 24 0 2 0 0 0 0 0 0 0 0 0 0 0 0 0 0 0 0 0 0 2 0 0 1 5 9 1 4 1 0 0
4132 3483 2291 1735 1219 1246 1415 1364 1225 663 164 3 5 27 10 0 0 0 0 0 0 0 0 0 0 0 0 0 1 2 2 2 1 0 0 0 0 0 0 2 11 6 0
3401 2632 1932 1585 1613 1802 1857 1384 1260 405 85 11 97 140 80 0 0 0 0 0 0 0 0 1 0 0 0 0 0 0 1 2 2 4 22 0 0 0 0 0 0 0 0
2927 1934 1856 1943 1859 827 0 156 176 0 2 57 70 88 32 0 0 0 0 0 0 0 0 0 0 0 0 0 0 0 0 1 4 3 5 3 0 0 0 0 0 0 0
2781 2281 2185 1944 502 0 0 0 0 0 4 18 3 31 0 0 0 0 0 0 0 0 0 0 0 0 0 0 0 1 3 3 6 6 1 4 0 0 1 0 0 0 0
2520 2246 1899 1230 1 0 0 0 0 0 0 0 0 0 0 0 0 0 0 0 0 0 0 0 0 0 0 0 0 0 0 8 6 4 2 4 4 4 4 14 7 0 0
2208 1896 1394 686 0 0 0 0 0 0 0 0 0 0 0 0 0 0 0 0 0 0 0 0 0 0 0 0 0 0 0 8 15 11 12 6 4 7 55 1 9 1 1